Temp
23 21 22 22 24 24 25 27 28 28 26 26 27 27 25 25 26 23 24 23 23 22 22 22 22 21 21 22 22 21 21 21 21 21 21 21 21 21 21 21 21 21 21 21 21 21 21 21 21
23 22 23 22 23 24 26 28 27 27 27 28 27 27 26 24 25 22 22 23 23 22 22 22 22 22 21 21 21 21 21 21 21 21 22 21 21 21 21 21 21 21 21 21 21 21 21 21 21
23 23 23 23 24 25 26 28 27 28 29 29 28 27 27 25 25 24 24 23 22 22 22 22 22 22 21 21 21 22 21 21 21 21 21 21 21 21 21 21 21 21 21 21 21 21 21 21 21
23 23 22 25 29 29 28 28 29 28 28 28 28 26 27 27 26 24 23 23 23 22 22 22 22 21 21 21 21 21 21 21 21 21 21 21 21 21 21 21 21 21 21 21 21 21 21 21 22
24 23 25 27 29 29 29 29 29 28 28 27 28 26 24 24 25 23 23 23 23 21 22 22 22 22 21 21 21 21 21 21 21 21 21 21 21 21 21 21 21 21 21 21 21 21 21 21 22
23 23 25 28 29 29 30 29 29 28 27 27 26 25 23 24 23 22 22 23 23 22 21 22 22 22 22 21 21 21 21 21 21 21 21 21 21 21 21 21 21 21 21 21 21 21 22 22 22
24 25 27 29 29 29 29 29 28 28 27 27 27 24 23 23 22 22 22 22 22 22 21 21 21 21 21 21 21 21 21 21 21 21 21 21 21 21 21 21 21 21 21 22 22 22 22 23 23
24 25 28 30 28 29 29 30 29 29 27 28 27 24 22 23 22 22 21 21 21 21 21 21 21 21 20 20 21 21 21 21 21 21 21 21 21 21 21 21 21 21 21 22 22 23 23 23 23
27 25 28 29 29 29 30 29 30 30 28 29 29 25 24 23 22 21 20 20 21 21 21 21 21 21 21 21 21 21 21 21 21 21 21 22 21 21 21 22 21 22 22 23 23 24 23 23 24
27 26 30 32 30 30 30 29 29 29 28 26 24 24 23 23 22 21 21 21 20 20 20 21 21 21 21 21 21 21 21 21 21 21 21 21 21 21 21 22 21 22 23 22 24 24 24 25 25
30 28 33 32 31 31 30 29 30 28 27 26 23 23 23 23 22 21 21 21 20 20 20 20 20 21 21 21 21 22 22 21 21 21 21 21 21 21 21 21 21 21 22 23 23 25 25 25 25
30 32 32 32 31 30 30 30 29 28 28 27 25 24 24 23 22 21 21 20 20 20 19 20 20 20 21 21 21 22 22 21 21 21 21 21 21 21 22 22 22 22 23 23 24 24 25 25 25
30 32 33 33 31 31 30 30 29 29 29 28 25 25 24 23 22 21 20 20 20 20 19 20 20 20 20 21 21 22 22 22 21 21 21 21 21 22 22 23 23 24 24 24 24 24 25 25 25
30 31 32 33 32 31 30 29 30 29 29 29 26 25 24 23 23 22 20 19 19 19 19 19 20 20 20 20 21 21 21 21 21 21 21 22 22 22 23 23 24 24 25 25 25 25 26 25 25
30 32 33 32 31 30 30 29 29 29 29 28 28 26 25 24 23 22 21 20 19 19 19 20 20 20 20 20 21 21 21 21 21 21 22 22 23 23 23 23 24 24 24 24 25 25 25 24 25
29 27 30 32 30 28 29 28 30 29 29 26 26 26 25 24 23 22 21 21 20 19 19 20 19 20 20 20 21 21 21 21 21 22 22 22 23 23 23 23 23 23 23 24 24 25 25 25 25
26 27 29 29 29 31 29 28 29 29 28 27 26 26 25 24 23 23 22 21 20 19 19 19 19 20 20 21 21 21 21 21 22 22 22 22 22 23 24 24 24 24 24 24 24 24 24 24 24
26 27 27 27 26 28 29 29 29 29 28 27 25 25 24 24 23 23 22 21 21 20 20 20 19 20 20 20 21 21 21 21 21 22 23 23 23 24 24 24 24 24 24 24 24 24 24 24 24
28 28 27 27 26 27 27 27 28 28 28 26 25 24 23 24 24 24 23 22 21 20 20 20 20 20 20 20 20 20 21 21 22 22 23 23 24 24 24 24 24 24 24 23 24 24 24 24 24
27 26 26 25 26 27 27 27 28 28 28 28 26 25 24 24 23 23 24 22 21 21 21 21 21 21 21 21 20 20 20 21 21 22 23 24 24 24 24 24 24 23 23 23 23 23 23 23 24
25 26 26 27 27 27 26 26 27 28 30 28 27 27 26 25 22 22 23 23 22 22 22 22 22 22 22 21 21 20 20 20 21 22 23 24 24 24 24 24 23 23 23 23 24 24 23 23 24
25 27 28 27 26 26 25 25 28 27 29 29 27 27 25 25 23 22 23 23 23 23 23 23 22 22 22 22 21 21 21 21 22 23 24 24 24 24 23 23 23 23 24 24 24 24 23 23 23
27 27 26 26 24 24 25 25 26 27 27 28 28 28 26 25 25 23 23 24 24 23 24 23 23 22 23 22 22 22 23 23 24 24 23 23 23 22 23 23 24 24 24 24 24 24 24 23 23
27 25 24 23 22 24 24 25 26 26 28 28 28 28 27 25 25 24 24 24 24 24 23 24 23 23 23 23 22 23 23 24 23 23 23 23 23 24 24 24 24 24 24 23 24 24 23 23 23
25 22 22 23 23 23 23 23 25 28 30 29 28 28 28 26 25 24 23 24 24 24 23 24 23 23 23 23 23 23 23 23 23 22 22 23 24 25 24 24 24 24 23 23 23 23 23 23 23
26 23 22 25 22 23 22 23 27 28 28 29 30 29 28 26 25 25 24 25 24 24 24 23 23 23 24 23 23 24 24 23 22 22 23 24 24 24 24 24 24 24 22 22 22 23 22 22 21
25 25 23 22 23 23 23 25 27 27 27 28 29 29 28 27 26 26 26 26 26 25 24 24 24 24 24 24 24 24 24 24 24 24 25 24 24 24 24 23 23 23 23 22 22 21 21 21 21
25 25 25 22 23 25 24 24 26 27 28 28 28 29 28 27 27 26 26 26 26 26 25 25 24 24 25 24 25 25 24 24 24 25 25 25 24 24 23 24 22 22 22 21 21 20 20 20 19
26 25 23 22 22 24 24 25 24 27 28 28 28 29 28 27 27 26 27 27 26 26 25 25 24 24 24 25 25 24 24 24 24 24 24 23 22 22 22 21 21 21 20 20 20 19 20 21 19
29 26 23 24 24 21 21 24 28 27 28 29 29 29 28 28 27 26 27 27 26 26 25 25 25 25 25 25 24 24 23 23 23 23 22 21 22 21 20 20 20 20 20 19 20 19 18 18 17
Height
768 771 773 774 793 790 799 789 772 779 782 774 768 772 786 782 790 812 785 788 790 792 794 796 797 798 799 800 803 806 807 810 812 814 816 820 822 824 826 827 829 831 833 835 835 836 836 837 838
767 772 773 777 802 814 805 780 787 779 774 768 770 775 782 794 783 788 789 791 792 793 797 798 799 802 803 804 806 808 811 814 815 817 819 822 826 828 829 831 832 833 835 836 837 838 839 839 840
772 773 779 789 799 810 806 782 782 776 770 768 775 774 780 792 786 789 789 792 794 796 798 802 802 804 807 808 809 812 814 816 818 821 822 825 828 830 832 833 835 835 836 837 839 839 840 841 841
772 774 779 793 788 780 781 778 775 777 773 770 774 787 783 784 785 788 791 793 796 798 800 803 805 807 810 811 813 815 817 819 821 823 825 827 830 832 833 834 836 838 838 839 840 841 841 842 843
771 775 792 792 784 776 773 773 773 780 778 778 777 793 794 789 787 791 794 796 797 800 804 806 807 809 812 814 816 817 819 822 824 825 827 829 831 833 835 836 837 839 839 841 842 843 843 843 844
780 781 801 799 788 776 775 773 775 781 782 784 788 792 798 794 792 795 797 799 800 802 805 808 809 811 815 816 818 820 822 824 826 828 830 831 833 835 837 838 839 840 841 842 844 844 844 845 846
784 789 795 787 791 787 781 774 779 782 786 789 785 802 800 798 798 798 800 801 803 805 808 811 812 814 817 817 819 822 825 826 828 830 831 833 835 836 838 839 841 842 842 843 844 845 846 846 847
775 782 790 783 794 793 779 777 777 777 788 781 783 805 808 800 801 801 802 803 806 807 810 812 815 816 819 820 824 825 828 829 830 832 833 836 837 838 840 841 842 844 845 846 846 847 847 847 848
765 794 795 787 787 785 774 782 776 774 783 781 782 790 795 800 803 804 806 807 808 810 811 814 816 818 820 823 825 827 829 830 832 834 836 838 839 841 842 843 844 846 847 848 848 849 849 849 848
775 796 781 764 768 775 775 777 778 784 789 792 793 795 800 803 804 805 807 808 808 811 813 815 817 820 822 824 826 827 829 831 833 835 837 839 842 843 845 845 847 848 849 849 850 850 850 849 848
768 785 762 764 763 762 774 779 775 787 797 790 797 798 801 804 806 806 807 808 809 811 814 816 818 820 822 825 827 829 830 831 835 837 839 841 843 845 846 847 848 848 850 849 849 850 850 849 848
775 763 761 760 762 771 777 776 784 784 785 784 790 795 799 803 803 804 806 807 809 812 813 815 819 821 824 827 829 831 832 834 836 839 842 843 845 847 848 848 848 849 850 849 849 849 849 848 847
770 760 756 758 763 766 770 778 783 783 779 786 793 797 800 801 802 805 806 809 810 812 813 816 819 822 825 827 830 833 834 835 840 842 844 846 848 849 850 850 849 849 850 849 849 849 849 847 845
760 765 764 760 767 772 779 781 777 783 779 784 790 795 796 798 800 805 807 808 810 812 814 816 819 823 825 827 831 834 835 839 841 844 845 848 849 850 850 850 850 849 849 850 849 848 847 846 844
762 771 767 769 768 774 776 794 793 780 781 786 786 789 794 798 802 804 806 808 810 811 815 818 820 823 827 830 833 835 837 839 842 845 847 848 850 851 852 852 851 850 850 849 849 848 846 845 843
776 783 795 777 775 782 782 812 787 780 783 790 789 790 794 800 802 806 808 810 812 813 815 819 822 825 827 831 834 836 839 840 843 845 847 849 851 853 853 852 851 850 850 849 848 847 846 844 840
793 811 802 795 782 782 790 805 785 779 785 791 793 795 799 802 804 805 807 810 812 814 815 818 822 825 829 833 835 838 840 841 843 846 847 850 852 853 852 851 850 849 849 847 846 845 844 841 839
814 808 806 812 799 792 793 798 784 783 788 799 800 797 799 799 799 802 806 810 813 815 816 820 823 826 830 833 835 838 840 842 844 846 848 850 851 851 850 849 849 848 848 847 845 844 842 840 837
790 798 808 802 797 799 805 804 797 791 793 792 798 799 800 798 800 803 807 810 813 816 817 819 822 825 828 832 835 837 839 842 844 847 848 849 850 850 849 848 848 847 846 846 844 842 840 837 836
790 806 809 806 796 792 796 801 793 791 788 780 787 794 795 797 802 803 806 809 811 813 816 820 821 823 827 831 835 838 840 842 843 845 846 847 849 849 848 847 846 846 845 844 842 841 839 836 835
800 807 807 804 796 788 800 810 795 786 781 785 783 783 790 791 798 802 804 805 809 812 815 818 822 824 826 831 834 837 840 842 843 844 844 846 847 847 846 844 843 842 841 839 839 838 838 836 834
813 792 790 797 806 823 807 837 795 789 784 781 786 786 787 789 796 800 800 803 804 810 814 818 822 824 826 829 832 835 837 839 840 841 844 846 846 844 842 841 839 838 837 836 836 835 835 835 833
795 791 798 801 818 819 818 830 801 785 792 784 781 777 781 782 787 792 796 798 802 808 813 817 821 825 826 828 833 833 836 838 839 841 843 843 842 840 837 836 835 835 835 834 833 832 832 833 832
778 797 809 813 826 840 819 823 809 796 777 775 771 771 773 779 783 788 794 800 802 807 812 815 820 822 825 828 833 834 838 838 838 838 838 837 838 835 833 832 833 834 833 834 833 831 830 831 831
789 817 847 848 846 844 819 826 800 770 760 760 763 765 768 774 781 788 792 796 800 804 808 812 817 820 822 825 830 830 835 835 834 836 835 833 832 830 831 832 832 833 833 833 832 828 827 829 830
791 808 834 842 854 837 824 827 791 757 752 749 748 751 762 771 777 783 786 791 795 800 805 809 813 816 821 823 827 829 832 833 834 834 832 831 830 830 830 830 830 830 831 830 830 826 827 829 830
797 808 804 829 828 835 818 795 765 757 757 754 755 759 763 768 773 777 783 788 793 796 800 804 808 813 818 822 825 828 831 831 830 830 829 829 829 829 828 827 827 827 827 828 828 827 830 830 830
782 781 815 825 844 834 819 808 788 766 760 756 759 759 763 764 770 774 780 785 789 792 796 801 806 810 815 819 822 825 828 829 829 828 828 826 826 826 826 825 825 828 828 829 828 830 832 831 831
786 796 806 815 825 826 831 804 764 757 749 753 754 752 759 762 766 771 776 781 785 789 794 799 805 809 813 817 820 827 827 827 827 827 827 827 827 827 826 827 830 830 830 831 832 833 834 832 833
748 772 789 810 814 821 825 805 744 746 742 740 746 748 752 756 761 767 772 779 785 788 792 797 802 806 811 816 820 823 825 825 826 827 827 829 829 830 830 832 833 833 833 834 834 835 836 835 835
Wind_Speed
15 13 8 0 3 4 2 2 1 5 3 2 8 11 8 7 2 4 1 15 18 21 21 22 23 24 26 27 27 26 28 28 28 28 28 26 24 24 22 21 19 17 15 13 12 12 11 10 9
17 14 2 0 4 3 2 3 3 6 9 13 13 10 9 5 5 8 11 16 19 22 22 22 24 25 26 27 27 27 26 27 27 28 27 25 22 21 19 17 16 14 13 12 11 10 8 7 6
12 3 2 2 3 3 4 5 10 11 9 1 4 5 4 3 6 9 11 20 20 22 24 22 25 26 25 26 27 27 26 25 25 24 24 22 20 18 16 16 14 14 12 11 9 7 6 6 6
2 3 2 2 5 3 5 12 11 12 12 9 6 6 4 4 4 10 25 21 20 23 23 23 23 25 24 24 25 25 24 23 23 23 22 21 18 17 16 15 13 12 11 9 8 8 7 6 6
3 1 3 3 3 7 10 13 9 5 5 12 4 4 4 6 17 24 22 20 23 22 21 24 25 25 25 24 24 24 23 21 21 19 19 18 18 17 15 14 13 11 10 9 8 7 7 6 7
2 1 2 1 5 9 10 10 8 11 10 12 9 6 3 13 21 18 19 20 21 23 21 22 23 24 24 24 22 21 21 19 19 18 17 17 17 15 14 14 12 12 11 9 6 6 6 6 5
2 2 3 3 8 13 10 9 12 14 11 6 4 4 2 9 17 19 20 19 18 21 21 20 21 22 23 28 24 18 19 18 17 17 17 16 16 16 14 15 13 10 10 9 7 4 4 6 5
3 2 5 2 5 4 10 5 6 13 6 11 8 5 4 9 19 20 19 20 19 20 21 21 22 24 24 24 22 19 18 17 16 15 16 15 15 15 15 14 13 10 8 6 5 4 3 3 3
1 4 3 5 6 6 10 10 6 4 14 3 2 6 14 22 21 21 18 19 20 20 22 23 24 25 24 21 20 17 17 16 15 15 14 16 16 15 13 12 10 8 6 5 3 3 2 2 3
3 2 3 2 10 12 13 14 10 8 8 6 11 17 21 22 19 20 17 16 16 20 22 23 25 26 24 21 20 20 19 17 16 16 17 17 16 14 12 10 7 6 5 5 4 4 4 6 8
5 4 1 10 11 18 14 12 9 11 5 10 17 16 16 17 13 16 15 15 16 20 23 24 26 26 25 22 22 19 19 15 15 16 16 16 14 12 10 9 8 9 8 8 8 7 7 10 11
3 5 7 4 16 12 11 14 10 2 5 14 18 19 15 12 13 16 15 18 18 21 18 25 27 27 24 22 22 22 21 19 15 15 14 14 13 9 7 7 8 8 10 11 10 11 12 13 13
4 5 2 13 17 12 17 13 7 6 9 16 18 16 14 10 12 13 15 14 19 18 23 26 26 26 24 23 21 21 19 15 15 14 13 11 8 6 3 3 6 8 11 13 14 15 17 17 17
1 3 2 13 12 13 9 5 6 5 7 14 21 19 15 14 18 15 15 16 17 19 22 26 27 25 24 23 22 21 17 16 17 15 13 9 7 6 3 3 2 5 7 9 12 13 15 18 16
1 3 9 9 11 15 11 3 5 6 7 7 14 19 15 14 17 17 19 20 19 21 23 27 29 26 24 22 20 19 17 15 18 16 14 9 6 5 4 6 6 9 3 4 5 6 12 12 12
5 6 4 4 5 4 4 5 4 7 14 11 12 14 13 12 18 17 18 20 21 19 22 29 25 26 23 20 19 17 16 15 18 17 15 8 3 1 3 4 4 7 7 6 9 9 12 13 16
8 2 5 5 9 8 3 3 4 7 13 12 10 10 12 11 12 18 21 22 22 23 25 28 25 26 23 21 18 15 14 15 17 18 16 9 3 3 3 4 7 8 10 7 9 12 14 17 17
10 4 6 4 6 3 6 2 10 7 12 8 4 9 11 13 13 21 22 21 22 23 23 23 22 23 25 23 21 17 14 14 16 19 15 11 8 6 6 6 8 9 11 9 11 14 14 15 17
8 10 9 2 0 3 4 1 6 1 12 20 10 8 10 11 9 18 20 19 22 22 23 22 22 23 23 21 22 22 20 16 15 16 19 17 12 9 8 8 10 12 13 14 14 16 16 18 14
10 7 2 1 6 1 4 5 7 9 14 18 14 14 14 10 9 13 17 20 23 25 25 22 21 24 24 21 20 18 19 17 18 19 19 19 15 11 12 13 14 15 14 14 14 14 15 14 11
3 5 5 4 3 5 6 7 6 6 11 7 10 13 11 15 12 9 13 19 24 25 26 26 24 24 21 19 18 14 11 15 17 19 19 19 16 15 17 17 17 15 15 16 14 14 14 16 19
2 4 9 12 4 2 4 4 5 6 17 14 11 11 13 13 7 8 13 17 24 27 27 26 24 24 21 19 17 16 16 16 16 24 22 19 17 18 15 15 15 15 14 14 12 12 12 14 18
4 10 10 7 4 2 5 2 6 9 10 16 15 17 15 13 11 9 15 22 20 24 27 27 25 24 21 20 17 15 13 14 13 16 15 16 15 18 17 15 13 12 13 11 11 9 9 10 14
15 7 5 5 3 1 5 4 5 6 15 16 14 16 15 13 10 9 13 14 16 21 25 27 26 25 23 22 19 17 13 13 17 18 18 17 12 12 11 8 9 13 13 8 8 9 7 9 13
6 7 2 2 0 5 3 2 8 4 10 18 18 17 14 13 12 9 10 18 21 23 25 28 27 28 25 24 25 23 22 19 20 16 16 14 11 8 6 5 9 3 7 13 7 8 6 11 7
12 7 5 6 4 2 4 6 6 6 8 14 19 19 12 11 10 12 15 19 23 24 25 27 31 30 27 28 26 24 21 19 20 18 18 15 10 9 6 11 12 14 13 8 10 9 8 5 4
6 5 2 6 3 1 4 6 8 8 7 5 9 10 13 13 12 11 15 20 21 23 28 31 30 31 30 31 27 23 20 18 18 14 12 11 8 7 7 7 9 6 9 8 7 8 7 5 7
6 8 1 3 5 4 4 5 6 5 9 7 10 13 11 11 11 9 13 20 24 26 29 28 30 32 31 30 27 22 19 18 14 13 9 8 6 6 6 6 5 2 3 5 9 13 11 11 12
4 3 3 3 2 4 3 6 7 7 9 11 13 15 14 13 14 10 13 20 23 24 25 27 28 29 28 26 23 18 16 16 12 6 5 4 2 1 3 6 7 10 11 12 12 13 11 12 15
5 8 8 5 4 3 4 5 4 7 9 11 13 14 13 14 14 12 16 20 20 25 25 28 27 27 24 21 19 17 14 15 11 8 7 6 6 7 8 10 11 13 14 14 15 17 17 20 22
Wind_Direction
154 158 160 47 47 59 11 51 17 113 37 80 70 96 93 42 54 151 156 159 150 146 151 140 135 129 128 126 127 127 128 127 128 130 133 135 136 136 136 136 137 139 139 138 139 140 145 150 153
159 152 106 300 75 67 6 85 52 89 126 115 93 93 61 61 49 116 115 155 151 149 151 148 140 136 132 130 128 128 129 130 132 133 134 134 138 138 139 140 142 143 141 143 145 141 143 149 158
142 172 102 73 101 159 151 131 125 137 166 352 101 76 79 107 114 146 157 157 152 153 155 155 145 140 136 134 132 131 131 134 136 136 136 137 140 143 147 147 147 145 146 149 147 151 146 147 143
178 30 62 82 138 135 130 139 135 114 105 98 107 59 65 93 119 154 153 154 154 157 159 156 146 140 139 136 136 136 135 137 140 139 138 138 142 144 148 149 148 149 153 154 152 143 131 132 137
28 46 14 335 2 116 134 132 136 107 73 87 80 91 50 37 122 142 152 157 154 157 156 153 151 147 144 141 140 141 139 140 140 142 142 143 145 147 148 148 151 153 154 148 142 131 126 130 134
19 81 36 155 81 120 130 132 114 101 92 87 90 86 55 121 126 136 154 152 155 154 153 154 150 149 148 143 142 141 142 144 147 146 148 147 149 149 150 147 154 156 150 146 141 133 125 130 130
210 110 293 24 101 123 124 130 129 117 131 98 109 84 78 83 126 146 150 149 144 150 149 151 148 148 148 149 147 151 149 148 149 154 152 155 150 149 151 152 150 162 159 149 145 148 138 148 163
178 96 329 19 135 130 142 119 136 121 87 118 145 141 169 133 132 134 141 142 141 146 149 151 152 150 152 149 154 159 155 153 151 159 154 151 150 151 150 156 162 168 169 162 156 157 163 163 187
269 22 326 151 110 136 143 129 157 112 137 153 119 107 130 136 130 124 127 135 141 145 155 158 157 155 154 157 157 159 159 156 155 153 154 153 152 155 161 164 165 172 183 180 187 199 227 248 253
135 94 277 132 136 140 144 145 127 137 139 84 87 108 132 138 149 139 147 148 145 153 161 165 164 163 160 160 160 161 157 158 162 160 163 158 161 166 174 169 182 198 216 230 233 258 269 278 283
176 217 106 142 129 130 128 130 130 140 158 160 148 143 148 153 150 149 155 157 159 159 164 172 172 169 170 169 168 170 158 155 166 168 162 162 168 170 180 189 197 225 237 250 252 257 271 286 295
10 284 245 146 135 125 129 134 153 202 176 147 151 151 153 164 162 160 160 165 162 166 165 178 178 177 177 173 167 168 168 168 169 169 166 163 166 175 191 208 221 242 256 265 266 270 280 290 294
209 25 176 145 137 135 143 149 163 165 139 138 147 156 163 165 159 162 164 166 167 173 178 179 177 182 181 183 182 178 173 179 183 169 164 163 167 170 180 264 275 278 277 280 286 288 292 296 296
131 232 273 136 143 137 129 143 116 207 155 149 158 171 172 171 165 158 168 172 173 173 178 182 181 179 179 180 182 182 185 187 183 173 161 156 154 166 137 94 20 333 280 293 282 279 280 289 296
286 110 114 148 134 151 139 73 165 167 161 129 152 170 168 166 161 177 178 180 176 171 176 184 179 179 183 183 188 188 189 190 183 174 169 154 153 145 118 50 63 31 328 314 328 309 291 294 310
41 51 111 182 119 136 89 188 204 157 142 144 160 164 162 159 172 180 182 182 181 170 177 180 182 184 185 189 192 194 198 196 189 186 185 178 172 107 42 27 30 13 359 311 322 336 335 314 320
22 76 36 97 359 145 82 215 184 159 149 159 154 147 153 160 175 185 187 183 180 180 177 183 186 192 192 195 195 194 199 201 197 197 201 210 243 325 320 349 348 342 339 330 330 327 325 326 323
217 112 79 335 354 349 11 321 174 180 148 76 174 152 158 173 183 185 185 177 184 186 183 185 193 199 201 203 203 207 205 203 204 209 220 232 258 288 294 318 328 327 328 325 331 319 323 321 321
116 115 133 226 49 163 63 125 288 229 153 175 183 182 172 178 166 181 185 171 182 186 184 187 191 193 196 199 208 218 222 220 219 227 230 235 251 272 293 311 313 311 312 318 315 317 322 320 330
109 118 119 7 316 90 63 303 232 211 205 188 182 185 176 170 161 167 178 177 181 184 186 188 191 188 192 199 200 207 216 225 230 235 232 229 244 273 296 304 299 300 303 305 310 314 318 319 329
49 157 186 164 280 22 10 295 216 205 212 224 210 198 185 180 173 183 181 174 186 191 192 190 192 189 191 198 200 206 221 233 237 234 230 225 252 278 286 286 291 291 291 295 303 311 313 311 320
200 200 184 163 133 148 140 272 249 181 200 212 194 200 203 195 169 173 181 181 194 197 202 196 198 199 197 203 201 204 205 199 213 225 227 240 262 280 279 281 284 287 284 288 296 303 307 302 306
157 60 73 86 55 69 189 144 271 144 209 217 194 210 201 205 188 176 185 197 196 197 205 203 202 208 210 209 200 201 199 203 216 231 246 265 269 272 281 282 275 281 287 283 283 294 312 321 313
122 90 36 58 59 267 203 170 261 200 203 210 207 205 196 193 195 192 193 201 191 197 200 205 202 207 213 213 208 217 218 239 245 253 254 262 268 271 273 279 276 283 294 276 308 320 335 325 304
85 79 0 352 1 225 154 181 245 268 177 200 200 205 194 184 182 179 174 191 193 190 195 202 205 210 214 221 220 222 221 229 242 250 258 273 272 290 275 292 271 326 318 293 332 347 343 336 341
171 144 166 197 196 226 99 235 241 220 192 204 198 198 176 172 176 188 187 187 194 198 198 199 213 222 220 223 225 230 240 244 255 263 269 277 279 279 264 284 296 272 317 326 324 355 37 44 39
220 234 187 102 344 70 215 279 286 221 232 204 164 165 185 182 181 182 186 192 190 195 205 208 212 222 224 224 224 227 233 245 257 261 264 258 260 281 300 303 306 292 321 12 59 69 82 82 81
153 138 132 37 183 230 270 282 236 194 181 168 154 175 191 185 185 179 179 183 187 195 208 210 214 219 221 222 225 230 234 242 252 249 259 277 270 297 311 339 359 21 51 70 96 95 89 78 70
145 127 85 113 231 153 304 263 218 201 162 167 176 175 173 181 180 174 177 183 185 195 203 210 213 217 217 217 223 223 226 230 241 206 212 226 179 116 61 81 100 102 103 101 95 84 77 66 73
156 162 157 159 215 210 149 281 296 185 182 172 181 177 175 182 173 169 173 170 177 192 198 206 211 214 216 211 211 211 206 199 197 165 157 157 155 135 123 122 114 102 100 101 98 89 83 86 82